{"data":{"norad_id":64162,"intl_designator":"2025-112S","name":"STARLINK-34317","alt_names":[],"object_type":"PAYLOAD","status":"ACTIVE","operator":null,"country":"US","launch_date":"2025-05-27","launch_site_code":"AFWTR","launch_vehicle":null,"mission":null,"orbit_class":"UNKNOWN","rcs_meters":null,"size_class":null,"mass_kg":null,"dimensions":null,"purposes":["comms"],"wikipedia_slug":null,"has_3d_model":false,"image_url":null,"decayed_at":null,"tle_current":{"epoch":"2026-09-20T01:41:26.244096Z","epoch_age_seconds":177492,"freshness":"STALE","line1":"1 64162U 25112S   26263.07044264  .00008292  00000+0  25885-3 0  9997","line2":"2 64162  97.2845 310.1697 0000905 101.1217 259.0128 15.33448937 72687","mean_motion":15.33448937,"eccentricity":9.05e-5,"inclination_deg":97.2845,"raan_deg":310.1697,"arg_perigee_deg":101.1217,"mean_anomaly_deg":259.0128,"bstar":0.00025885,"rev_number":7268,"period_min":93.905963560624,"perigee_km":464.91210876541,"apogee_km":466.15081275681,"semimajor_km":6843.6684607611,"source":"CELESTRAK","updated_at":"2026-09-21T09:00:35.240725Z"}}}